Simultaneous Nadir Overpasses (SNOs) Predictions

Prediction of SNOs between TERRA and METOP-C Satellite Orbit:

Table of predicted SNOs for the next 14.0 days since TLE Epoch: 5/14/2022
Index Date (TERRA) Time (TERRA) Lat,Lon (TERRA) SZA (TERRA ) Date (METOP-C) Time (METOP-C) Lat,Lon (METOP-C) SZA (METOP-C ) Distance(km) Time Diff (sec)
1 05/15/2022 15:47:04 81.19, -15.26 64.61 05/15/2022 15:46:50 81.19, -15.08 64.63 3.13 14
2 05/15/2022 16:36:30 -81.20, 152.64 115.36 05/15/2022 16:37:29 -81.21, 152.67 115.33 0.73 59
3 05/18/2022 11:21:11 81.19, 51.22 63.98 05/18/2022 11:21:09 81.19, 51.32 64.00 1.87 2
4 05/18/2022 12:10:37 -81.21,-140.86 115.99 05/18/2022 12:11:48 -81.21,-140.86 115.95 0.19 71
5 05/21/2022 06:05:53 -81.18, -50.10 116.63 05/21/2022 06:04:49 -81.18, -50.05 116.65 0.69 64
6 05/21/2022 06:55:18 81.21, 117.93 63.43 05/21/2022 06:55:28 81.20, 118.05 63.44 2.10 10
7 05/24/2022 01:40:00 -81.19, 16.51 117.16 05/24/2022 01:39:08 -81.19, 16.70 117.16 3.14 52
8 05/24/2022 02:29:26 81.19,-175.86 62.84 05/24/2022 02:29:49 81.19,-176.04 62.83 3.06 23
9 05/26/2022 21:14:07 -81.17, 82.63 117.72 05/26/2022 21:13:28 -81.18, 82.64 117.73 0.76 39



Historial Predications of SNOs between TERRA and METOP-C
